Location: Lane
(33.5226°N, 79.8788°W)
Time: 11:45:15
(UTC+00:00)

Tiros 1 despin weight - Pass Details

Date: 05 October 2022
Orbit: 590 x 637 km, 48.2° (Epoch: 25 November)

Event Time Altitude Azimuth Distance (km) Brightness Sun altitude
Rises 03:03:06 0° 306° (NW) 2,902 - -49.1°
Reaches altitude 10° 03:05:24 10° 305° (NW) 2,000 - -49.5°
Maximum altitude 03:10:00 73° 221° (SW) 660 - -50.2°
Drops below altitude 10° 03:14:38 10° 137° (SE) 2,011 - -50.9°
Sets 03:16:57 0° 135° (SE) 2,919 - -51.3°
